| time (UTC) | temp C | wind direction | speed KPH | gust KPH | rain 1hr cm | rain 24hr cm | rain mn cm | humidity % | barometer mb |
| 20260503175043 | 15 | 256 | 1.6 | 4.8 | 0.00 | 0.00 | 0.00 | 74 | 1014.2 |
| 20260503174543 | 15 | 231 | 1.6 | 4.8 | 0.00 | 0.00 | 0.00 | 73 | 1014.2 |
| 20260503174044 | 15 | 290 | 1.6 | 4.8 | 0.00 | 0.00 | 0.00 | 74 | 1014.2 |
| 20260503173544 | 15 | 290 | 1.6 | 4.8 | 0.00 | 0.00 | 0.00 | 73 | 1014.1 |
| 20260503172544 | 15 | 9 | 3.2 | 17.7 | 0.00 | 0.00 | 0.00 | 72 | 1013.9 |
| 20260503172044 | 16 | 233 | 1.6 | 9.7 | 0.00 | 0.00 | 0.00 | 71 | 1014.0 |
| 20260503171040 | 15 | 91 | 1.6 | 11.3 | 0.00 | 0.00 | 0.00 | 72 | 1013.9 |
| 20260503170534 | 15 | 271 | 3.2 | 14.5 | 0.00 | 0.00 | 0.00 | 73 | 1013.8 |
| 20260503160135 | 15 | 250 | 3.2 | 16.1 | 0.00 | 0.00 | 0.00 | 74 | 1013.6 |
| 20260503150600 | 13 | 255 | 1.6 | 12.9 | 0.00 | 0.00 | 0.00 | 79 | 1013.5 |
| 20260503131359 | 12 | 199 | 0.0 | 3.2 | 0.00 | 0.00 | 0.00 | 79 | 1012.3 |
| 20260503130357 | 12 | 200 | 1.6 | 4.8 | 0.00 | 0.00 | 0.00 | 79 | 1012.1 |
| 20260503110558 | 12 | 266 | 1.6 | 9.7 | 0.00 | 0.00 | 0.00 | 80 | 1012.2 |
| 20260503081451 | 12 | 249 | 1.6 | 4.8 | 0.00 | 0.00 | 0.00 | 81 | 1012.8 |
| 20260503080945 | 12 | 230 | 1.6 | 6.4 | 0.00 | 0.00 | 0.00 | 81 | 1012.8 |
| 20260503080436 | 12 | 261 | 1.6 | 19.3 | 0.00 | 0.00 | 0.00 | 81 | 1012.8 |
| 20260503072839 | 12 | 267 | 1.6 | 9.7 | 0.00 | 0.00 | 0.00 | 80 | 1012.9 |
| 20260503072335 | 12 | 267 | 1.6 | 9.7 | 0.00 | 0.00 | 0.00 | 80 | 1012.9 |
| 20260503071315 | 12 | 265 | 1.6 | 6.4 | 0.00 | 0.00 | 0.00 | 81 | 1012.9 |
| 20260503070312 | 12 | 248 | 1.6 | 4.8 | 0.00 | 0.00 | 0.00 | 80 | 1013.0 |
| 20260503060302 | 12 | 239 | 1.6 | 9.7 | 0.00 | 0.00 | 0.00 | 79 | 1013.3 |
| 20260503054736 | 12 | 311 | 0.0 | 4.8 | 0.00 | 0.00 | 0.00 | 79 | 1013.4 |
| 20260503054231 | 13 | 255 | 0.0 | 6.4 | 0.00 | 0.00 | 0.00 | 79 | 1013.4 |
| 20260503053724 | 13 | 255 | 1.6 | 6.4 | 0.00 | 0.00 | 0.00 | 79 | 1013.5 |
| 20260503052708 | 13 | 117 | 1.6 | 9.7 | 0.00 | 0.00 | 0.00 | 79 | 1013.5 |
| 20260503052203 | 13 | 257 | 1.6 | 9.7 | 0.00 | 0.00 | 0.00 | 79 | 1013.4 |
| 20260503051647 | 13 | 256 | 0.0 | 8.0 | 0.00 | 0.00 | 0.00 | 79 | 1013.7 |
| 20260503051142 | 13 | 256 | 0.0 | 8.0 | 0.00 | 0.00 | 0.00 | 80 | 1013.6 |
| 20260503050637 | 13 | 255 | 1.6 | 9.7 | 0.00 | 0.00 | 0.00 | 79 | 1013.6 |
| 20260503050125 | 13 | 290 | 1.6 | 9.7 | 0.00 | 0.00 | 0.00 | 80 | 1013.5 |
| 20260503045125 | 13 | 270 | 1.6 | 8.0 | 0.00 | 0.00 | 0.00 | 80 | 1013.5 |
| 20260503044626 | 13 | 273 | 1.6 | 14.5 | 0.00 | 0.00 | 0.00 | 80 | 1013.4 |
| 20260503044124 | 13 | 254 | 1.6 | 14.5 | 0.00 | 0.00 | 0.00 | 80 | 1013.3 |
| 20260503043625 | 13 | 241 | 1.6 | 6.4 | 0.00 | 0.00 | 0.00 | 80 | 1013.3 |
| 20260503043127 | 13 | 147 | 1.6 | 6.4 | 0.00 | 0.00 | 0.00 | 80 | 1013.3 |
| 20260503042625 | 13 | 254 | 1.6 | 6.4 | 0.00 | 0.00 | 0.00 | 80 | 1013.2 |
| 20260503042124 | 13 | 304 | 1.6 | 6.4 | 0.00 | 0.00 | 0.00 | 80 | 1013.2 |
| 20260503041624 | 13 | 218 | 1.6 | 8.0 | 0.00 | 0.00 | 0.00 | 80 | 1013.2 |
| 20260503041123 | 13 | 229 | 1.6 | 8.0 | 0.00 | 0.00 | 0.00 | 80 | 1013.2 |
| 20260503040624 | 13 | 121 | 0.0 | 6.4 | 0.00 | 0.00 | 0.00 | 80 | 1013.2 |
| 20260503040118 | 13 | 252 | 0.0 | 4.8 | 0.00 | 0.00 | 0.00 | 80 | 1013.1 |
| 20260503035117 | 13 | 245 | 1.6 | 6.4 | 0.00 | 0.00 | 0.00 | 79 | 1013.0 |
| 20260503033616 | 13 | 272 | 1.6 | 6.4 | 0.00 | 0.00 | 0.00 | 79 | 1013.0 |
| 20260503033114 | 13 | 273 | 1.6 | 6.4 | 0.00 | 0.00 | 0.00 | 79 | 1012.8 |
| 20260503032612 | 13 | 123 | 1.6 | 8.0 | 0.00 | 0.00 | 0.00 | 79 | 1012.8 |
| 20260503032109 | 13 | 248 | 1.6 | 8.0 | 0.00 | 0.00 | 0.00 | 79 | 1012.9 |
| 20260503031610 | 13 | 269 | 0.0 | 4.8 | 0.00 | 0.00 | 0.00 | 79 | 1012.6 |
| 20260503030606 | 13 | 90 | 1.6 | 9.7 | 0.00 | 0.00 | 0.00 | 79 | 1012.5 |
| 20260503025608 | 13 | 255 | 1.6 | 12.9 | 0.00 | 0.00 | 0.00 | 78 | 1012.3 |
| 20260503025107 | 13 | 204 | 1.6 | 12.9 | 0.00 | 0.00 | 0.00 | 78 | 1012.4 |
| 20260503024608 | 13 | 115 | 1.6 | 9.7 | 0.00 | 0.00 | 0.00 | 77 | 1012.5 |
| 20260503024107 | 13 | 277 | 1.6 | 9.7 | 0.00 | 0.00 | 0.00 | 77 | 1012.4 |
| 20260503023608 | 13 | 234 | 1.6 | 14.5 | 0.00 | 0.00 | 0.00 | 76 | 1012.3 |
| 20260503022606 | 14 | 263 | 1.6 | 14.5 | 0.00 | 0.00 | 0.00 | 75 | 1012.3 |
| 20260503021606 | 14 | 275 | 1.6 | 9.7 | 0.00 | 0.00 | 0.00 | 74 | 1012.3 |
| 20260503020608 | 14 | 247 | 1.6 | 12.9 | 0.00 | 0.00 | 0.00 | 73 | 1012.3 |
| 20260503020106 | 14 | 236 | 3.2 | 19.3 | 0.00 | 0.00 | 0.00 | 72 | 1012.2 |
| 20260503015607 | 15 | 273 | 3.2 | 19.3 | 0.00 | 0.00 | 0.00 | 72 | 1012.2 |
| 20260503015106 | 15 | 217 | 1.6 | 9.7 | 0.00 | 0.00 | 0.00 | 72 | 1012.2 |
| 20260503014607 | 15 | 285 | 1.6 | 11.3 | 0.00 | 0.00 | 0.00 | 71 | 1012.2 |
| 20260503014107 | 15 | 266 | 1.6 | 11.3 | 0.00 | 0.00 | 0.00 | 71 | 1012.2 |
| 20260503013608 | 15 | 109 | 3.2 | 8.0 | 0.00 | 0.00 | 0.00 | 70 | 1012.2 |
| 20260503012605 | 15 | 279 | 3.2 | 12.9 | 0.00 | 0.00 | 0.00 | 70 | 1012.2 |
| 20260503012105 | 15 | 241 | 3.2 | 12.9 | 0.00 | 0.00 | 0.00 | 70 | 1012.3 |
| 20260503011602 | 16 | 254 | 1.6 | 12.9 | 0.00 | 0.00 | 0.00 | 69 | 1012.3 |
| 20260503011105 | 16 | 158 | 1.6 | 12.9 | 0.00 | 0.00 | 0.00 | 69 | 1012.2 |
| 20260503010602 | 16 | 240 | 3.2 | 12.9 | 0.00 | 0.00 | 0.00 | 69 | 1012.1 |
| 20260503010103 | 16 | 259 | 3.2 | 9.7 | 0.00 | 0.00 | 0.00 | 69 | 1012.2 |
| 20260503005104 | 16 | 264 | 3.2 | 14.5 | 0.00 | 0.00 | 0.00 | 69 | 1012.3 |
| 20260503004603 | 16 | 264 | 3.2 | 14.5 | 0.00 | 0.00 | 0.00 | 68 | 1012.3 |
| 20260503004049 | 16 | 254 | 3.2 | 12.9 | 0.00 | 0.00 | 0.00 | 68 | 1012.2 |
| 20260503003543 | 16 | 286 | 3.2 | 12.9 | 0.00 | 0.00 | 0.00 | 67 | 1012.3 |
| 20260503003037 | 17 | 269 | 3.2 | 14.5 | 0.00 | 0.00 | 0.00 | 67 | 1012.3 |
| 20260503002022 | 17 | 136 | 1.6 | 9.7 | 0.00 | 0.00 | 0.00 | 66 | 1012.2 |
| 20260503001516 | 17 | 238 | 3.2 | 9.7 | 0.00 | 0.00 | 0.00 | 66 | 1012.3 |
| 20260503001001 | 17 | 296 | 3.2 | 12.9 | 0.00 | 0.00 | 0.00 | 65 | 1012.3 |
| 20260502235949 | 18 | 215 | 1.6 | 9.7 | 0.00 | 0.00 | 0.00 | 64 | 1012.3 |
| 20260502235438 | 18 | 194 | 1.6 | 12.9 | 0.00 | 0.00 | 0.00 | 64 | 1012.3 |
| 20260502234933 | 18 | 202 | 3.2 | 12.9 | 0.00 | 0.00 | 0.00 | 64 | 1012.4 |
| 20260502234428 | 18 | 47 | 3.2 | 12.9 | 0.00 | 0.00 | 0.00 | 64 | 1012.4 |
| 20260502233915 | 18 | 242 | 3.2 | 12.9 | 0.00 | 0.00 | 0.00 | 62 | 1012.4 |
| 20260502233410 | 18 | 221 | 3.2 | 11.3 | 0.00 | 0.00 | 0.00 | 64 | 1012.5 |
| 20260502232351 | 18 | 148 | 3.2 | 12.9 | 0.00 | 0.00 | 0.00 | 64 | 1012.7 |
| 20260502231843 | 18 | 151 | 3.2 | 17.7 | 0.00 | 0.00 | 0.00 | 64 | 1012.6 |
| 20260502231339 | 18 | 215 | 3.2 | 17.7 | 0.00 | 0.00 | 0.00 | 62 | 1012.7 |
| 20260502230828 | 18 | 238 | 3.2 | 14.5 | 0.00 | 0.00 | 0.00 | 63 | 1012.7 |
| 20260502230321 | 18 | 261 | 3.2 | 14.5 | 0.00 | 0.00 | 0.00 | 61 | 1012.8 |
| 20260502225817 | 18 | 209 | 3.2 | 11.3 | 0.00 | 0.00 | 0.00 | 62 | 1012.9 |
| 20260502225304 | 19 | 201 | 1.6 | 9.7 | 0.00 | 0.00 | 0.00 | 61 | 1012.9 |
| 20260502224757 | 20 | 296 | 1.6 | 14.5 | 0.00 | 0.00 | 0.00 | 61 | 1013.0 |
| 20260502224251 | 18 | 204 | 3.2 | 14.5 | 0.00 | 0.00 | 0.00 | 62 | 1013.1 |
| 20260502223235 | 18 | 257 | 4.8 | 17.7 | 0.00 | 0.00 | 0.00 | 62 | 1013.3 |
| 20260502222729 | 18 | 275 | 6.4 | 17.7 | 0.00 | 0.00 | 0.00 | 62 | 1013.2 |
| 20260502222213 | 18 | 269 | 4.8 | 17.7 | 0.00 | 0.00 | 0.00 | 63 | 1013.4 |
| 20260502221708 | 18 | 227 | 3.2 | 17.7 | 0.00 | 0.00 | 0.00 | 62 | 1013.3 |
| 20260502221204 | 18 | 234 | 4.8 | 17.7 | 0.00 | 0.00 | 0.00 | 62 | 1013.4 |
| 20260502220653 | 18 | 194 | 4.8 | 16.1 | 0.00 | 0.00 | 0.00 | 62 | 1013.4 |
| 20260502215642 | 18 | 140 | 3.2 | 19.3 | 0.00 | 0.00 | 0.00 | 63 | 1013.5 |
| 20260502215126 | 18 | 284 | 3.2 | 20.9 | 0.00 | 0.00 | 0.00 | 63 | 1013.6 |
| 20260502214621 | 18 | 222 | 3.2 | 20.9 | 0.00 | 0.00 | 0.00 | 63 | 1013.7 |
| 20260502214115 | 19 | 271 | 3.2 | 17.7 | 0.00 | 0.00 | 0.00 | 63 | 1013.6 |
| 20260502213605 | 18 | 309 | 4.8 | 17.7 | 0.00 | 0.00 | 0.00 | 64 | 1013.7 |
| 20260502212553 | 18 | 246 | 3.2 | 11.3 | 0.00 | 0.00 | 0.00 | 65 | 1013.6 |
| 20260502212039 | 18 | 335 | 3.2 | 12.9 | 0.00 | 0.00 | 0.00 | 66 | 1013.7 |
| 20260502211534 | 18 | 255 | 3.2 | 12.9 | 0.00 | 0.00 | 0.00 | 65 | 1013.8 |
| 20260502211028 | 18 | 290 | 3.2 | 17.7 | 0.00 | 0.00 | 0.00 | 65 | 1013.9 |
| 20260502210527 | 18 | 267 | 3.2 | 17.7 | 0.00 | 0.00 | 0.00 | 67 | 1014.0 |
| 20260502205527 | 18 | 92 | 3.2 | 14.5 | 0.00 | 0.00 | 0.00 | 66 | 1014.1 |
| 20260502204535 | 18 | 208 | 3.2 | 17.7 | 0.00 | 0.00 | 0.00 | 66 | 1014.3 |
| 20260502204023 | 18 | 165 | 3.2 | 17.7 | 0.00 | 0.00 | 0.00 | 67 | 1014.3 |
| 20260502203524 | 17 | 71 | 4.8 | 14.5 | 0.00 | 0.00 | 0.00 | 68 | 1014.4 |
| 20260502203029 | 18 | 126 | 4.8 | 14.5 | 0.00 | 0.00 | 0.00 | 67 | 1014.4 |
| 20260502202523 | 17 | 212 | 3.2 | 16.1 | 0.00 | 0.00 | 0.00 | 69 | 1014.4 |
| 20260502201522 | 17 | 276 | 3.2 | 14.5 | 0.00 | 0.00 | 0.00 | 68 | 1014.7 |
| 20260502200523 | 17 | 246 | 4.8 | 22.5 | 0.00 | 0.00 | 0.00 | 69 | 1014.7 |
| 20260502200022 | 17 | 261 | 3.2 | 22.5 | 0.00 | 0.00 | 0.00 | 68 | 1014.7 |
| 20260502195522 | 17 | 264 | 3.2 | 16.1 | 0.00 | 0.00 | 0.00 | 72 | 1014.7 |
| 20260502195022 | 16 | 239 | 4.8 | 22.5 | 0.00 | 0.00 | 0.00 | 71 | 1014.8 |
| 20260502194521 | 16 | 168 | 4.8 | 22.5 | 0.00 | 0.00 | 0.00 | 72 | 1014.7 |
| 20260502193522 | 16 | 261 | 4.8 | 16.1 | 0.00 | 0.00 | 0.00 | 72 | 1014.7 |
| 20260502193022 | 16 | 113 | 3.2 | 14.5 | 0.00 | 0.00 | 0.00 | 73 | 1014.7 |
| 20260502192527 | 16 | 204 | 3.2 | 11.3 | 0.00 | 0.00 | 0.00 | 73 | 1014.7 |
| 20260502192020 | 16 | 269 | 3.2 | 22.5 | 0.00 | 0.00 | 0.00 | 74 | 1014.7 |
| 20260502191521 | 16 | 238 | 3.2 | 22.5 | 0.00 | 0.00 | 0.00 | 75 | 1014.8 |
| 20260502191021 | 16 | 157 | 3.2 | 6.4 | 0.00 | 0.00 | 0.00 | 76 | 1014.8 |
| 20260502190514 | 15 | 278 | 3.2 | 17.7 | 0.00 | 0.00 | 0.00 | 76 | 1014.9 |
| 20260502190013 | 15 | 237 | 4.8 | 20.9 | 0.00 | 0.00 | 0.00 | 78 | 1014.9 |
| 20260502185014 | 15 | 256 | 4.8 | 20.9 | 0.00 | 0.00 | 0.00 | 77 | 1015.0 |
| 20260502184014 | 15 | 148 | 3.2 | 16.1 | 0.00 | 0.00 | 0.00 | 76 | 1014.9 |
| 20260502183515 | 16 | 251 | 3.2 | 16.1 | 0.00 | 0.00 | 0.00 | 75 | 1014.8 |
| 20260502183013 | 16 | 220 | 3.2 | 12.9 | 0.00 | 0.00 | 0.00 | 76 | 1014.8 |
| 20260502182515 | 16 | 293 | 3.2 | 12.9 | 0.00 | 0.00 | 0.00 | 76 | 1014.8 |
| 20260502182015 | 16 | 277 | 3.2 | 14.5 | 0.00 | 0.00 | 0.00 | 76 | 1014.7 |
| 20260502181014 | 16 | 298 | 4.8 | 16.1 | 0.00 | 0.00 | 0.00 | 76 | 1014.6 |